Location: Crab Orchard
(37.7292°N, 88.8042°W)
Time: 13:42:42
(UTC+00:00)

Nadezhda 4 Rocket - Pass Details

Date: 08 December 2019
Orbit: 949 x 993 km, 82.9° (Epoch: 16 January)

Event Time Altitude Azimuth Distance (km) Brightness Sun altitude
Rises 23:38:47 0° 189° (S) 3,690 7.4 -12.1°
Reaches altitude 10° 23:41:18 10° 191° (S) 2,747 6.8 -12.6°
Maximum altitude 23:47:37 77° 277° (W) 1,022 4.2 -13.8°
Drops below altitude 10° 23:53:57 10° 4° (N) 2,757 6.2 -15.0°
Sets 23:56:30 0° 6° (N) 3,706 6.8 -15.4°
